Back to catalog

COSMOS 941

AliveMilitaryLEO
NORAD 10287·PAYLOAD·🇷🇺 Russia

Launched Aug 24, 1977 from Plesetsk Cosmodrome

Loading…

Next Passes (next 24 hours)

TLE

FreshSource: Space-Track

Epoch: Sep 14, 2026, 13:03 UTC

1 10287U 77079C   26257.54431625 -.00000022  00000-0 -36472-4 0  9992
2 10287  74.0217 272.3133 0031829 213.0797 316.9704 12.56553398221264

Track COSMOS 941 in real time with AllMySat

Download on the App Store